This is the latest recevied weather packets stored in our database for station/object KC3BAN-3. If no packets are shown the sender has not sent any weather packets the latest 10 day(s).
| Time | Temp. | Humidity | Pressure | Rain* | Wind** | Luminosity | Snow |
|---|---|---|---|---|---|---|---|
| 1777818858 | 13.89° C | 60% | 1017.7 hPa | 0 mm | - | - | - |
| 1777818556 | 13.33° C | 60% | 1017.6 hPa | 0 mm | - | - | - |
| 1777818259 | 13.33° C | 56% | 1017.6 hPa | 0 mm | - | - | - |
| 1777817828 | 13.33° C | 57% | 1017.6 hPa | 0 mm | - | - | - |
| 1777817527 | 13.33° C | 60% | 1017.6 hPa | 0 mm | - | - | - |
| 1777817230 | 13.33° C | 58% | 1017.4 hPa | 0 mm | - | - | - |
| 1777817061 | 13.33° C | 57% | 1017.4 hPa | 0 mm | - | - | - |
| 1777816630 | 13.33° C | 61% | 1017.3 hPa | 0 mm | - | - | - |
| 1777816326 | 12.78° C | 60% | 1017.3 hPa | 0 mm | - | - | - |
| 1777816154 | 12.78° C | 56% | 1017.4 hPa | 0 mm | - | - | - |
| 1777815726 | 12.78° C | 56% | 1017.3 hPa | 0 mm | - | - | - |
| 1777815426 | 12.78° C | 64% | 1017.2 hPa | 0 mm | - | - | - |
| 1777815120 | 12.78° C | 59% | 1017.2 hPa | 0 mm | - | - | - |
| 1777814822 | 12.22° C | 57% | 1017 hPa | 0 mm | - | - | - |
| 1777814520 | 12.22° C | 60% | 1017.1 hPa | 0 mm | - | - | - |
| 1777814220 | 12.22° C | 58% | 1017 hPa | 0 mm | - | - | - |
| 1777813920 | 12.78° C | 60% | 1017 hPa | 0 mm | - | - | - |
| 1777813748 | 12.78° C | 62% | 1017.1 hPa | 0 mm | - | - | - |
| 1777813320 | 12.78° C | 67% | 1016.9 hPa | 0 mm | - | - | - |
| 1777813023 | 12.78° C | 65% | 1016.9 hPa | 0 mm | - | - | - |
| 1777812847 | 12.78° C | 66% | 1016.9 hPa | 0 mm | - | - | - |
| 1777812545 | 12.78° C | 69% | 1016.8 hPa | 0 mm | - | - | - |
| 1777812119 | 12.78° C | 67% | 1016.6 hPa | 0 mm | - | - | - |
| 1777811818 | 12.78° C | 67% | 1016.5 hPa | 0 mm | - | - | - |
| 1777811519 | 12.78° C | 67% | 1016.4 hPa | 0 mm | - | - | - |
* Rain latest hour (hover to see other rain measurements)
** Current wind speed in m/s (hover to see current wind gust speed)